Location: Bosmont
(49.7318°N, 3.8587°E)
Time: 09:22:05
(UTC+00:00)

Okean O Rocket - Pass Details

Date: 08 February 2023
Orbit: 620 x 643 km, 98.1° (Epoch: 23 March)

Event Time Altitude Azimuth Distance (km) Brightness Sun altitude
Rises 19:23:49 0° 184° (S) 2,917 5.0 -25.0°
Reaches altitude 10° 19:26:06 10° 192° (SSW) 2,018 4.2 -25.4°
Maximum altitude 19:30:15 40° 262° (W) 947 2.9 -26.0°
Drops below altitude 10° 19:34:27 10° 332° (NNW) 2,046 4.6 -26.7°
Sets 19:36:48 0° 340° (NNW) 2,963 5.4 -27.1°
